DK6MR-13 Weather Reports


Display with metric or nautical units.
time (UTC)temp
F
wind
direction
speed
MPH
gust
MPH
rain 1hr
in
rain 24hr
in
rain mn
in
humidity
%
barometer
mb
20260507045715 48 47 0.0 0.0 0.00 0.00 0.00 89 1011.1
20260507044214 48 45 0.0 0.0 0.00 0.00 0.00 88 1011.1
20260507042714 48 322 1.0 1.0 0.00 0.00 0.00 87 1010.8
20260507041212 48 340 0.0 1.0 0.00 0.00 0.00 88 1010.8
20260507035711 48 59 1.0 2.0 0.00 0.00 0.00 88 1010.8
20260507034210 48 56 1.0 2.0 0.00 0.00 0.00 88 1010.8
20260507032710 48 343 1.0 1.0 0.00 0.00 0.00 88 1010.5
20260507031209 48 84 1.0 3.0 0.00 0.00 0.00 88 1010.5
20260507025708 48 17 0.0 0.0 0.00 0.00 0.00 88 1010.1
20260507024207 48 8 0.0 1.0 0.00 0.00 0.00 88 1010.1
20260507022706 48 62 1.0 1.0 0.00 0.00 0.00 89 1010.5
20260507021206 48 55 1.0 1.0 0.00 0.00 0.00 90 1010.1
20260507015704 48 54 1.0 1.0 0.00 0.00 0.00 90 1010.1
20260507014204 48 327 3.0 6.0 0.00 0.00 0.00 90 1009.8
20260507012703 48 56 0.0 1.0 0.00 0.00 0.00 90 1009.8
20260507011202 48 334 3.0 4.0 0.00 0.00 0.00 90 1009.8
20260507005700 48 334 0.0 2.0 0.00 0.00 0.00 90 1009.8
20260507004159 48 16 1.0 1.0 0.00 0.00 0.00 90 1009.8
20260507002658 48 352 1.0 1.0 0.00 0.00 0.00 90 1009.5
20260507001157 48 73 0.0 0.0 0.00 0.00 0.00 91 1009.5
20260506235656 48 9 1.0 1.0 0.00 0.00 0.00 91 1009.5
20260506234155 48 45 0.0 0.0 0.00 0.00 0.00 91 1009.1
20260506232654 48 333 2.0 3.0 0.00 0.00 0.00 91 1009.5
20260506231154 48 6 1.0 1.0 0.00 0.00 0.00 92 1009.5
20260506225652 48 2 2.0 2.0 0.00 0.00 0.00 92 1009.1
20260506224151 48 45 0.0 0.0 0.00 0.00 0.00 92 1009.1
20260506222650 49 356 1.0 3.0 0.00 0.00 0.00 92 1009.1
20260506221149 49 342 0.0 0.0 0.00 0.00 0.00 92 1009.1
20260506215648 49 10 1.0 1.0 0.00 0.00 0.38 92 1008.8
20260506214147 49 11 0.0 0.0 0.07 0.00 0.38 92 1008.8
20260506212647 49 4 0.0 0.0 0.00 0.00 0.37 92 1008.8
20260506211146 49 349 0.0 0.0 0.00 0.00 0.37 92 1008.4
20260506205644 49 32 0.0 1.0 0.05 0.00 0.37 91 1008.1
20260506204144 49 24 1.0 2.0 0.07 0.00 0.36 91 1008.4
20260506202642 49 337 0.0 1.0 0.00 0.00 0.35 91 1008.4
20260506201141 49 349 0.0 0.0 0.00 0.00 0.35 91 1008.1
20260506195640 49 55 0.0 1.0 0.00 0.00 0.35 91 1008.1
20260506194139 49 343 3.0 4.0 0.00 0.00 0.35 91 1008.1
20260506192638 49 325 2.0 3.0 0.00 0.00 0.35 92 1007.8
20260506191137 49 7 1.0 2.0 0.00 0.00 0.35 92 1007.8
20260506185637 49 337 1.0 1.0 0.00 0.00 0.35 92 1007.4
20260506184136 49 343 2.0 3.0 0.00 0.00 0.35 92 1007.4
20260506182634 49 0 0.0 0.0 0.05 0.00 0.35 92 1007.1
20260506181134 49 318 0.0 0.0 0.00 0.00 0.34 92 1006.7
20260506175633 49 19 1.0 1.0 0.00 0.00 0.34 92 1007.1
20260506174132 49 95 0.0 1.0 0.07 0.00 0.34 91 1007.1
20260506172631 49 58 0.0 0.0 0.00 0.00 0.33 91 1006.7
20260506171129 49 32 2.0 3.0 0.00 0.00 0.33 90 1006.7
20260506165628 50 81 0.0 0.0 0.00 0.00 0.33 90 1006.4
20260506164127 50 94 0.0 0.0 0.00 0.00 0.33 90 1006.4
20260506162627 50 288 1.0 2.0 0.00 0.00 0.33 89 1006.4
20260506161126 51 81 1.0 1.0 0.00 0.00 0.33 89 1006.4
20260506155625 51 63 2.0 3.0 0.00 0.00 0.33 89 1006.4
20260506154124 51 346 0.0 0.0 0.00 0.00 0.33 90 1006.4
20260506152623 51 52 1.0 2.0 0.00 0.00 0.33 90 1006.1
20260506151122 51 329 1.0 3.0 0.00 0.00 0.33 91 1006.1
20260506145621 51 299 1.0 1.0 0.00 0.00 0.32 91 1005.7
20260506144120 51 50 0.0 1.0 0.07 0.00 0.32 91 1006.1
20260506142619 51 59 1.0 1.0 0.05 0.00 0.31 91 1005.7
20260506141118 51 294 3.0 3.0 0.00 0.00 0.30 91 1006.1
20260506135617 51 7 0.0 1.0 0.00 0.00 0.30 90 1005.4
20260506134116 51 317 3.0 4.0 0.00 0.00 0.28 90 1005.7
20260506132615 52 92 0.0 1.0 0.00 0.00 0.28 91 1005.4
20260506131114 52 319 1.0 1.0 0.00 0.00 0.28 90 1005.4
20260506125613 52 3 0.0 0.0 0.00 0.00 0.28 91 1005.4
20260506124111 52 73 0.0 0.0 0.00 0.00 0.28 91 1005.4
20260506122611 52 303 1.0 2.0 0.00 0.00 0.28 91 1005.4
20260506121110 52 26 0.0 0.0 0.00 0.00 0.28 91 1005.1
20260506115609 52 45 0.0 0.0 0.00 0.00 0.28 91 1005.1
20260506114108 52 75 2.0 2.0 0.00 0.00 0.28 91 1005.1
20260506112607 52 299 1.0 2.0 0.00 0.00 0.28 91 1004.7
20260506111107 53 8 1.0 2.0 0.07 0.00 0.28 91 1004.7
20260506105606 53 51 0.0 0.0 0.00 0.00 0.27 91 1004.7
20260506104105 53 340 1.0 1.0 0.00 0.00 0.27 91 1004.7
20260506102604 53 59 1.0 1.0 0.00 0.00 0.27 91 1004.7
20260506101103 53 300 1.0 2.0 0.00 0.00 0.26 91 1004.4
20260506095602 53 1 0.0 0.0 0.00 0.00 0.25 91 1004.4
20260506094101 53 26 0.0 0.0 0.00 0.00 0.24 91 1004.4
20260506092600 53 76 0.0 0.0 0.00 0.00 0.24 91 1004.0
20260506091059 53 350 0.0 0.0 0.00 0.00 0.24 91 1004.0
20260506085558 53 50 0.0 1.0 0.05 0.00 0.24 91 1004.4
20260506084057 53 98 0.0 0.0 0.00 0.00 0.23 91 1004.0
20260506082557 53 33 0.0 0.0 0.00 0.00 0.23 91 1004.0
20260506081056 52 352 0.0 1.0 0.00 0.00 0.22 91 1004.0
20260506072553 52 7 0.0 0.0 0.00 0.00 0.20 92 1003.4
20260506071052 52 3 1.0 1.0 0.00 0.00 0.20 92 1003.7
20260506061049 52 47 0.0 0.0 0.00 0.00 0.16 92 1003.4
20260506051046 51 35 0.0 0.0 0.00 0.00 0.13 92 1003.4